| time (UTC) | temp F | wind direction | speed MPH | gust MPH | rain 1hr in | rain 24hr in | rain mn in | humidity % | barometer mb |
| 20260831220811 | 83 | 190 | 3.0 | 7.0 | 0.00 | 0.24 | 0.24 | 74 | 992.6 |
| 20260831215309 | 84 | 157 | 4.0 | 7.0 | 0.00 | 0.24 | 0.24 | 71 | 992.9 |
| 20260831213804 | 85 | 205 | 4.0 | 8.0 | 0.00 | 0.24 | 0.24 | 68 | 992.9 |
| 20260831212306 | 87 | 180 | 4.0 | 8.0 | 0.00 | 0.24 | 0.24 | 63 | 992.8 |
| 20260831210803 | 85 | 182 | 4.0 | 10.0 | 0.00 | 0.24 | 0.24 | 67 | 992.8 |
| 20260831205305 | 83 | 240 | 2.0 | 6.0 | 0.00 | 0.24 | 0.24 | 71 | 992.8 |
| 20260831203800 | 80 | 139 | 6.0 | 11.0 | 0.35 | 0.24 | 0.24 | 77 | 992.6 |
| 20260831202300 | 80 | 254 | 4.0 | 8.0 | 0.14 | 0.18 | 0.18 | 80 | 993.1 |
| 20260831200800 | 80 | 200 | 1.0 | 6.0 | 0.00 | 0.16 | 0.16 | 83 | 993.2 |
| 20260831195258 | 80 | 205 | 2.0 | 3.0 | 0.00 | 0.16 | 0.16 | 87 | 993.2 |
| 20260831193754 | 78 | 181 | 2.0 | 4.0 | 0.00 | 0.16 | 0.16 | 91 | 992.7 |
| 20260831192251 | 77 | 182 | 0.0 | 1.0 | 0.07 | 0.13 | 0.13 | 93 | 993.8 |
| 20260831190750 | 77 | 185 | 1.0 | 1.0 | 0.17 | 0.12 | 0.12 | 93 | 993.5 |
| 20260831185246 | 78 | 172 | 2.0 | 4.0 | 0.07 | 0.02 | 0.02 | 86 | 993.9 |
| 20260831183741 | 79 | 172 | 2.0 | 2.0 | 0.00 | 0.01 | 0.01 | 84 | 993.9 |
| 20260831182241 | 80 | 164 | 0.0 | 0.0 | 0.00 | 0.01 | 0.01 | 79 | 994.2 |
| 20260831180737 | 80 | 208 | 0.0 | 2.0 | 0.00 | 0.01 | 0.01 | 76 | 994.0 |
| 20260831175233 | 81 | 223 | 2.0 | 4.0 | 0.00 | 0.01 | 0.01 | 74 | 993.9 |
| 20260831173729 | 81 | 154 | 2.0 | 4.0 | 0.00 | 0.01 | 0.01 | 75 | 994.3 |
| 20260831172225 | 83 | 170 | 4.0 | 10.0 | 0.00 | 0.01 | 0.01 | 73 | 994.2 |
| 20260831170725 | 84 | 222 | 5.0 | 8.0 | 0.00 | 0.01 | 0.01 | 70 | 994.2 |
| 20260831165225 | 82 | 227 | 3.0 | 4.0 | 0.00 | 0.01 | 0.01 | 73 | 994.5 |
| 20260831163723 | 80 | 210 | 4.0 | 7.0 | 0.00 | 0.01 | 0.01 | 76 | 994.9 |
| 20260831162223 | 79 | 257 | 3.0 | 7.0 | 0.00 | 0.01 | 0.01 | 80 | 995.0 |
| 20260831160720 | 78 | 174 | 2.0 | 4.0 | 0.00 | 0.01 | 0.01 | 82 | 995.1 |
| 20260831155216 | 76 | 289 | 3.0 | 9.0 | 0.00 | 0.01 | 0.01 | 86 | 995.1 |
| 20260831153712 | 74 | 208 | 4.0 | 7.0 | 0.00 | 0.01 | 0.01 | 90 | 995.4 |
| 20260831152212 | 73 | 202 | 2.0 | 4.0 | 0.00 | 0.01 | 0.01 | 91 | 995.5 |
| 20260831150707 | 72 | 180 | 1.0 | 2.0 | 0.00 | 0.01 | 0.01 | 93 | 995.3 |
| 20260831145203 | 73 | 157 | 4.0 | 6.0 | 0.05 | 0.01 | 0.01 | 91 | 995.5 |
| 20260831143659 | 73 | 151 | 2.0 | 3.0 | 0.00 | 0.00 | 0.00 | 89 | 996.1 |
| 20260831142158 | 74 | 129 | 2.0 | 3.0 | 0.00 | 0.00 | 0.00 | 85 | 995.7 |
| 20260831140658 | 75 | 176 | 2.0 | 4.0 | 0.00 | 0.00 | 0.00 | 84 | 995.0 |
| 20260831135158 | 74 | 155 | 4.0 | 9.0 | 0.00 | 0.00 | 0.00 | 84 | 995.2 |
| 20260831133654 | 73 | 164 | 1.0 | 4.0 | 0.00 | 0.00 | 0.00 | 87 | 995.4 |
| 20260831132150 | 74 | 214 | 5.0 | 8.0 | 0.00 | 0.00 | 0.00 | 87 | 995.2 |
| 20260831130648 | 72 | 180 | 1.0 | 3.0 | 0.00 | 0.00 | 0.00 | 90 | 995.4 |
| 20260831125143 | 73 | 221 | 2.0 | 2.0 | 0.00 | 0.00 | 0.00 | 89 | 995.4 |
| 20260831123641 | 73 | 165 | 2.0 | 4.0 | 0.00 | 0.00 | 0.00 | 86 | 995.7 |
| 20260831122136 | 73 | 180 | 2.0 | 7.0 | 0.00 | 0.00 | 0.00 | 87 | 995.4 |
| 20260831120632 | 73 | 171 | 2.0 | 4.0 | 0.00 | 0.00 | 0.00 | 87 | 995.5 |
| 20260831115130 | 72 | 200 | 0.0 | 2.0 | 0.00 | 0.00 | 0.00 | 89 | 995.3 |
| 20260831113630 | 71 | 145 | 2.0 | 4.0 | 0.00 | 0.00 | 0.00 | 91 | 994.9 |
| 20260831112125 | 70 | 130 | 6.0 | 8.0 | 0.00 | 0.00 | 0.00 | 92 | 994.7 |
| 20260831110624 | 68 | 138 | 0.0 | 0.0 | 0.00 | 0.00 | 0.00 | 96 | 994.5 |
| 20260831105119 | 68 | 143 | 1.0 | 2.0 | 0.00 | 0.00 | 0.00 | 97 | 994.3 |
| 20260831103618 | 68 | 160 | 0.0 | 1.0 | 0.00 | 0.00 | 0.00 | 97 | 994.7 |
| 20260831102115 | 68 | 186 | 0.0 | 0.0 | 0.00 | 0.00 | 0.00 | 97 | 994.7 |
| 20260831100613 | 68 | 169 | 0.0 | 1.0 | 0.00 | 0.00 | 0.00 | 97 | 994.8 |
| 20260831095113 | 69 | 174 | 0.0 | 0.0 | 0.00 | 0.00 | 0.00 | 97 | 994.9 |
| 20260831093612 | 68 | 177 | 0.0 | 0.0 | 0.00 | 0.00 | 0.00 | 97 | 995.1 |
| 20260831092111 | 68 | 204 | 0.0 | 0.0 | 0.00 | 0.00 | 0.00 | 97 | 995.4 |
| 20260831090607 | 68 | 154 | 0.0 | 1.0 | 0.00 | 0.00 | 0.00 | 96 | 995.3 |
| 20260831085105 | 68 | 192 | 0.0 | 0.0 | 0.00 | 0.00 | 0.00 | 96 | 995.0 |
| 20260831083605 | 69 | 180 | 0.0 | 1.0 | 0.00 | 0.00 | 0.00 | 96 | 995.0 |
| 20260831082105 | 69 | 174 | 0.0 | 0.0 | 0.00 | 0.00 | 0.00 | 95 | 994.9 |
| 20260831080603 | 69 | 138 | 0.0 | 1.0 | 0.00 | 0.00 | 0.00 | 94 | 995.0 |
| 20260831075100 | 70 | 173 | 0.0 | 1.0 | 0.00 | 0.00 | 0.00 | 93 | 995.0 |
| 20260831073555 | 71 | 156 | 1.0 | 2.0 | 0.00 | 0.00 | 0.00 | 92 | 995.1 |
| 20260831072053 | 71 | 188 | 2.0 | 3.0 | 0.00 | 0.00 | 0.00 | 91 | 995.2 |
| 20260831070551 | 71 | 234 | 1.0 | 3.0 | 0.00 | 0.00 | 0.00 | 91 | 995.4 |
| 20260831065050 | 71 | 219 | 2.0 | 3.0 | 0.00 | 0.00 | 0.00 | 91 | 995.5 |
| 20260831063548 | 70 | 208 | 0.0 | 1.0 | 0.00 | 0.00 | 0.00 | 94 | 995.4 |
| 20260831062048 | 69 | 171 | 0.0 | 0.0 | 0.00 | 0.00 | 0.00 | 95 | 995.0 |
| 20260831060543 | 69 | 167 | 0.0 | 1.0 | 0.00 | 0.00 | 0.00 | 95 | 994.9 |
| 20260831055041 | 70 | 178 | 0.0 | 0.0 | 0.00 | 0.00 | 0.00 | 94 | 994.9 |
| 20260831053538 | 69 | 181 | 0.0 | 0.0 | 0.00 | 0.00 | 0.00 | 94 | 995.3 |
| 20260831052037 | 69 | 176 | 0.0 | 0.0 | 0.00 | 0.00 | 0.00 | 94 | 995.1 |
| 20260831050535 | 70 | 148 | 1.0 | 1.0 | 0.00 | 0.00 | 0.00 | 93 | 995.3 |
| 20260831045034 | 70 | 191 | 0.0 | 0.0 | 0.00 | 0.00 | 0.00 | 92 | 995.3 |
| 20260831043531 | 71 | 170 | 0.0 | 0.0 | 0.00 | 0.00 | 0.00 | 92 | 995.5 |
| 20260831042026 | 72 | 192 | 3.0 | 3.0 | 0.00 | 0.00 | 0.00 | 88 | 995.6 |
| 20260831040522 | 72 | 146 | 3.0 | 3.0 | 0.00 | 0.00 | 0.00 | 89 | 995.4 |
| 20260831035020 | 71 | 118 | 2.0 | 2.0 | 0.00 | 0.95 | 0.95 | 90 | 995.2 |
| 20260831033517 | 74 | 158 | 2.0 | 4.0 | 0.00 | 0.95 | 0.95 | 85 | 995.2 |
| 20260831032013 | 74 | 155 | 1.0 | 2.0 | 0.00 | 0.95 | 0.95 | 84 | 995.3 |
| 20260831030511 | 74 | 189 | 1.0 | 2.0 | 0.00 | 0.95 | 0.95 | 84 | 995.1 |
| 20260831025010 | 74 | 212 | 2.0 | 3.0 | 0.00 | 0.95 | 0.95 | 84 | 995.5 |
| 20260831023509 | 74 | 209 | 1.0 | 3.0 | 0.00 | 0.95 | 0.95 | 84 | 995.6 |
| 20260831022005 | 75 | 189 | 2.0 | 3.0 | 0.00 | 0.95 | 0.95 | 83 | 995.2 |
| 20260831020500 | 75 | 224 | 3.0 | 4.0 | 0.00 | 0.95 | 0.95 | 81 | 994.7 |
| 20260831014957 | 75 | 261 | 2.0 | 3.0 | 0.00 | 0.95 | 0.95 | 82 | 995.1 |
| 20260831013455 | 75 | 240 | 1.0 | 4.0 | 0.00 | 0.95 | 0.95 | 82 | 994.8 |
| 20260831011955 | 75 | 208 | 3.0 | 6.0 | 0.00 | 0.95 | 0.95 | 83 | 995.0 |
| 20260831010452 | 75 | 174 | 5.0 | 6.0 | 0.00 | 0.95 | 0.95 | 83 | 994.8 |
| 20260831004949 | 75 | 262 | 3.0 | 7.0 | 0.00 | 0.95 | 0.95 | 83 | 994.7 |
| 20260831003449 | 75 | 181 | 1.0 | 7.0 | 0.00 | 0.95 | 0.95 | 83 | 994.6 |
| 20260831001949 | 75 | 174 | 1.0 | 3.0 | 0.00 | 0.95 | 0.95 | 83 | 994.5 |
| 20260831000448 | 75 | 220 | 6.0 | 8.0 | 0.00 | 0.95 | 0.95 | 83 | 994.6 |
| 20260830234943 | 75 | 246 | 4.0 | 8.0 | 0.00 | 0.95 | 0.95 | 82 | 994.8 |
| 20260830233440 | 76 | 193 | 5.0 | 7.0 | 0.00 | 0.95 | 0.95 | 82 | 994.6 |
| 20260830231940 | 76 | 126 | 2.0 | 7.0 | 0.00 | 0.95 | 0.95 | 82 | 994.7 |
| 20260830230436 | 77 | 219 | 4.0 | 6.0 | 0.00 | 0.95 | 0.95 | 80 | 994.8 |
| 20260830224931 | 78 | 261 | 2.0 | 9.0 | 0.00 | 0.95 | 0.95 | 79 | 994.6 |
| 20260830223429 | 78 | 218 | 7.0 | 9.0 | 0.00 | 0.95 | 0.95 | 77 | 994.6 |
| 20260830221929 | 78 | 208 | 4.0 | 6.0 | 0.00 | 0.95 | 0.95 | 77 | 994.9 |